Regional Weather Roundup
Issued by NWS

Home | Current Version | Previous Version | Text Only | Print | Product List | Glossary Off
Versions: 1 2 3 4 5 6 7 8 9 10 11 12 13 14 15 16 17 18 19 20 21 22 23 24 25 26 27 28 29 30 31 32 33 34 35 36 37 38 39 40 41 42 43 44 45 46 47 48 49 50

299
ASUS45 KSLC 051510
RWRUT

UTAH REGIONAL WEATHER ROUNDUP
NATIONAL WEATHER SERVICE SALT LAKE CITY UT
800 AM MST MON DEC 05 2016

UTZ001>011-023>025-051600-

NORTHERN UTAH

CITY           SKY/WX    TMP DP  RH WIND       PRES   REMARKS
BRIGHAM CITY     N/A     26   3  36 N9        30.02R WCI  17
HILL AFB       NOT AVBL
LOGAN          PTCLDY   N/A N/A N/A E6        29.99R
OGDEN          CLOUDY    27   5  39 N14       29.99R WCI  16
SALT LAKE CITY CLOUDY    31  15  52 N10       30.01R WCI  22
TOOELE VALLEY  CLOUDY    30  14  51 W12       30.04R WCI  21
WENDOVER       PTCLDY    30   9  40 N14G26    30.01R WCI  20
HEBER CITY     CLOUDY    28  18  64 NE15      29.89R WCI  17
WEST JORDAN    CLOUDY    28  25  87 N3G20     30.00S

$$

UTZ011>015-024>027-051600-

CENTRAL/NORTHEAST UTAH

CITY           SKY/WX    TMP DP  RH WIND       PRES   REMARKS
PROVO AIRPORT  CLOUDY    34  19  55 N17G24    30.00R WCI  23
MOAB/CANYONLAN PTCLDY    23  17  78 NW5       29.84R WCI  17
DELTA          MOCLDY    32  18  55 N18G25    29.95R WCI  20
PRICE          CLOUDY    30  18  60 NW10      29.83R WCI  21
RICHFIELD      MOCLDY    41  16  36 W13G21    29.89R
ROOSEVELT      MOCLDY    36  18  48 W20G26    29.82R WCI  25
VERNAL         PTCLDY    20  14  77 W6        29.79R WCI  12

$$

UTZ013>016-019>022-027-051600-

SOUTHERN UTAH

CITY           SKY/WX    TMP DP  RH WIND       PRES   REMARKS
BRYCE CANYON   CLEAR     32  13  45 W12       29.89S WCI  23
CEDAR CITY     CLEAR     32  17  54 SE8       29.91R WCI  25
MILFORD        PTCLDY    34  10  37 NW8       29.92R WCI  27
ST GEORGE      PTSUNNY   28  16  59 CALM      29.97R
HANKSVILLE     PTCLDY    19  16  86 CALM      29.88R
KANAB          CLEAR     25  18  74 N3        29.98R
BLANDING       CLEAR     25  17  69 CALM      29.97S

$$

REGIONAL REPORTS     COLORADO/ARIZONA

CITY           SKY/WX    TMP DP  RH WIND       PRES   REMARKS
CRAIG, CO      CLOUDY    30  15  53 W14       29.74R WCI  19
GRAND JUNCTION CLOUDY    26  20  77 E6        29.84R WCI  19
RIFLE, CO      CLOUDY    23  18  81 W3        29.82R
MONTROSE, CO   CLOUDY    30  20  66 CALM      29.83R
CORTEZ, CO     CLOUDY    25  22  88 SE3       29.89F
COLORADO CITY    N/A     21  19  93 CALM      29.96R
PAGE, AZ       CLEAR     33  18  53 N5        29.89S WCI  29
GRAND CANYON   PTCLDY    22  18  85 CALM      29.96S
KINGMAN, AZ    PTCLDY    36  13  38 SE6       29.93R WCI  31
FLAGSTAFF, AZ  PTCLDY    24  15  68 SW5       29.98R WCI  18

$$

REGIONAL REPORTS    NEVADA/IDAHO/WYOMING

CITY           SKY/WX    TMP DP  RH WIND       PRES   REMARKS
LAS VEGAS, NV  PTCLDY    43  16  33 CALM      29.92R
ELY, NY        CLEAR     20  14  77 S8        29.95S WCI  10
ELKO, NV       CLOUDY    25  16  68 S3        30.04R
POCATELLO, ID  PTCLDY    17  14  88 S14       30.00R WCI   3
BURLEY, ID     CLEAR     19  13  77 W17G25    30.03R WCI   4
FORT BRIDGER,  CLOUDY    19   2  48 W18G29    29.86R WCI   3
EVANSTON, WY   CLOUDY    17  -3  41 W17       29.85S WCI   1
ROCK SPRINGS,  CLOUDY    18   9  68 W30G38    29.77R WCI  -1

$$




USA.gov is the U.S. government's official web portal to all federal, state and local government web resources and services.